This demonstration page uses our WeatherBlox Daily Observations layout. Learn more.

41.55636, -103.73856

Hourly Observations for September 17, 2019

Temp ( °F °C ) Dew Point ( °F °C ) Humidity (%) Winds ( mph kmh ) Pressure ( in mb ) Visibility ( mi km ) Precip ( " mm )
12:58 am 00:58 Mostly Cloudy 78 25.3 42 5.7 28 28 SSE 12 19 29.75 1007 10 16.0934 0 0
1:58 am 01:58 Mostly Cloudy 74 23.3 41 5.1 31 31 S 13 20 29.75 1008 10 16.0934 0 0
2:58 am 02:58 Mostly Cloudy 73 23 44 6.7 35 35 S 13 20 29.75 1007 10 16.0934 0 0
3:58 am 03:58 Mostly Cloudy 76 24.6 43 6.1 31 31 SSW 12 19 29.74 1007 10 16.0934 0 0
4:58 am 04:58 Mostly Cloudy 70 21 44 6.9 40 40 S 15 24 29.66 1005 10 16.0934 0 0
5:58 am 05:58 Clear 66 18.9 46 7.5 48 48 S 9 15 29.69 1005 10 16.0934 0 0
6:58 am 06:58 Clear 65 18.3 46 8 51 51 SW 17 28 29.72 1007 10 16.0934 0 0
7:58 am 07:58 Clear 65 18.2 44 6.4 46 46 SSW 15 24 29.72 1007 10 16.0934 0 0
8:58 am 08:58 Clear 62 16.6 42 5.5 48 48 WSW 6 9 29.74 1007 10 16.0934 0 0
9:58 am 09:58 Mostly Clear 62 16.9 41 5.1 46 46 W 3 6 29.72 1006 10 16.0934 0 0
10:58 am 10:58 Mostly Cloudy 60 15.8 41 4.9 49 49 W 6 9 29.74 1007 10 16.0934 0 0
11:58 am 11:58 Mostly Cloudy 58 14.6 42 5.6 55 55 WSW 7 11 29.75 1007 10 16.0934 0 0
12:58 pm 12:58 Mostly Sunny 61 16.1 41 4.9 48 48 WSW 5 7 29.76 1008 10 16.0934 0 0
1:58 pm 13:58 Partly Cloudy 64 17.5 46 7.6 52 52 Calm 29.76 1008 10 16.0934 0 0
2:58 pm 14:58 Mostly Cloudy 64 17.8 47 8.2 54 54 Calm 29.79 1009 10 16.0934 0 0
3:58 pm 15:58 Mostly Cloudy 69 20.3 48 8.8 48 48 Calm 29.77 1008 10 16.0934 0 0
4:58 pm 16:58 Mostly Cloudy 75 24 42 5.7 31 31 Calm 29.77 1008 10 16.0934 0 0
5:58 pm 17:58 Mostly Cloudy 78 25.8 43 5.9 28 28 Calm 29.76 1008 10 16.0934 0 0
6:58 pm 18:58 Sunny 80 26.8 40 4.4 24 24 Calm 29.74 1007 10 16.0934 0 0
7:58 pm 19:58 Sunny 83 28.1 41 4.9 23 23 SSE 6 9 29.72 1006 10 16.0934 0 0
8:58 pm 20:58 Sunny 85 29.4 39 3.9 20 20 S 12 19 29.7 1006 10 16.0934 0 0
9:58 pm 21:58 Sunny 85 29.7 35 1.5 16 16 S 21 33 29.67 1005 10 16.0934 0 0
10:58 pm 22:58 Partly Cloudy 82 27.5 40 4.2 22 22 WNW 17 28 29.73 1007 10 16.0934 0 0
11:58 pm 23:58 Mostly Cloudy with Light Showers 74 23.2 45 7.3 36 36 WNW 13 20 29.8 1009 10 16.0934 0 0

Powered by AerisWeather